Header for Extended Forecast Station List Page

Search by: ID | Name | Date | Parm | Value | Avg | % Avg
Sort by: ID | Name | Date | Parm | Value | Avg | % Avg

Enter search or view all records.

Click on id for station plot
#IDNameDateParmValueAvg% Avg
0ABOM8CLARK FORK-ABOVE MISSOULA04-22-2019DISCHARGE (KAF)14731336110
1AFRI1SNAKE-AMERICAN FALLS RESERVOIR04-22-2019INFLOW (KAF)27772204126
2ALFW1PEND OREILLE-ALBENI FALLS DAM04-22-2019INFLOW (KAF)87211015586
3ALPW4SNAKE-NEAR ALPINE04-22-2019DISCHARGE (KAF)23732094113
4ANAW1SNAKE-NEAR ANATONE04-22-2019DISCHARGE (KAF)1277711745109
5ANTI1HENRYS FORK-AT ST. ANTHONY04-22-2019DISCHARGE (KAF)813593137
6ARAI1SF BOISE-ANDERSON RANCH DAM04-22-2019INFLOW (KAF)520447116
7ARDW1ENTIAT-NEAR ARDENVOIR04-22-2019DISCHARGE (KAF)12719167
8BELM8CLARK FORK-BELOW MISSOULA04-22-2019DISCHARGE (KAF)26282519104
9BERO3MALHEUR-AGENCY VALLEY DAM04-22-2019INFLOW (KAF)4328157
10BFEI1KOOTENAI-AT BONNERS FERRY04-22-2019STAGE (FT)MMM
11BFTI1SNAKE-NEAR BLACKFOOT04-22-2019DISCHARGE (KAF)21891591138
12BIGI1BOISE-AT GLENWOOD BRIDGE04-22-2019DISCHARGE (KAF)739433171
13BITM8BITTERROOT-NEAR MISSOULA04-22-2019DISCHARGE (KAF)11531142101
14BONM8BLACKFOOT-NEAR BONNER04-22-2019DISCHARGE (KAF)72176095
15BONO3COLUMBIA-BONNEVILLE DAM04-22-2019INFLOW (KAF)505225832487
16BRNI1SNAKE-BROWNLEE DAM04-22-2019INFLOW (KAF)62514502139
17BUDW1BUMPING-BUMPING LAKE DAM04-22-2019INFLOW (KAF)7810574
18BULO3BULLY CREEK-BULLY CREEK DAM04-22-2019INFLOW (KAF)1011065
19CABI1CLARK FORK-CABINET GORGE DAM04-22-2019INFLOW (KAF)7990881091
20CFMM8FLATHEAD-AT COLUMBIA FALLS04-22-2019DISCHARGE (KAF)3569394690
21CHDW1CHELAN-LAKE CHELAN DAM04-22-2019INFLOW (KAF)64296267
22CHEI1FALL RIVER-NEAR CHESTER04-22-2019DISCHARGE (KAF)403298135
23CHJW1COLUMBIA-CHIEF JOSEPH DAM04-22-2019INFLOW (KAF)254733134881
24CIBW1COLUMBIA-AT INTL BOUNDARY04-22-2019DISCHARGE (KAF)24578MM
25CLFW1NACHES-NEAR CLIFFDEL04-22-2019DISCHARGE (KAF)26032081
26CLUW1CLE ELUM-CLE ELUM LAKE04-22-2019INFLOW (KAF)24634571
27COEI1COEUR D ALENE-COEUR D ALENE LAKE04-22-2019INFLOW (KAF)1496196876
28CSDI1NF PAYETTE-CASCADE DAM04-22-2019INFLOW (KAF)549425129
29DEDI1DEADWOOD-NEAR LOWMAN04-22-2019INFLOW (KAF)138125110
30DLGM8CLARK FORK-AT DEER LODGE04-22-2019DISCHARGE (KAF)9170131
31DRMM8CLARK FORK-NR DRUMMOND04-22-2019DISCHARGE (KAF)366MM
32DWRI1NF CLEARWATER-DWORSHAK DAM04-22-2019INFLOW (KAF)1941224986
33EASW1YAKIMA-AT EASTON04-22-2019DISCHARGE (KAF)10290114
34EMMI1PAYETTE-NEAR EMMETT04-22-2019DISCHARGE (KAF)14031076130
35FCFM8NF FLATHEAD-NEAR COLUMBIA FALLS04-22-2019DISCHARGE (KAF)1073154869
36GCDW1COLUMBIA-GRAND COULEE DAM04-22-2019INFLOW (KAF)275504165566
37GIBO3UMATILLA-NEAR GIBBON04-22-2019DISCHARGE (KAF)7548158
38HALI1BIG WOOD-AT HAILEY04-22-2019DISCHARGE (KAF)263220119
39HEII1SNAKE-NEAR HEISE04-22-2019DISCHARGE (KAF)34023094110
40HHWM8SF FLATHEAD-HUNGRY HORSE DAM04-22-2019INFLOW (KAF)1562179987
41HODO3HOOD-NEAR TUCKER BRIDGE04-22-2019DISCHARGE (KAF)14717783
42HOPI1PEND OREILLE-PEND OREILLE LAKE NR HOPE04-22-2019LAKE ELEVATION (FT)MMM
43HOTI1BRUNEAU-NEAR HOT SPRINGS04-22-2019DISCHARGE (KAF)203154132
44HWRI1BIG LOST-AT HOWELL RANCH NEAR CHILLY04-22-2019DISCHARGE (KAF)208159131
45IHDW1SNAKE-ICE HARBOR DAM04-22-2019INFLOW (KAF)1839017716104
46IPDI1HENRYS FORK-ISLAND PARK DAM04-22-2019INFLOW (KAF)257207124
47JDAO3COLUMBIA-JOHN DAY DAM04-22-2019INFLOW (KAF)495236315178
48JKSW4SNAKE-NEAR JACKSON04-22-2019DISCHARGE (KAF)19721632121
49JLKW4SNAKE-JACKSON LAKE AT DAM04-22-2019INFLOW (KAF)813755108
50KADW1KACHESS-KACHESS DAM04-22-2019INFLOW (KAF)588766
51KEDW1YAKIMA-KEECHELUS LAKE04-22-2019INFLOW (KAF)679571
52KERM8FLATHEAD-KERR DAM04-22-2019INFLOW (KAF)4135491284
53KIOW1YAKIMA-AT KIONA04-22-2019DISCHARGE (KAF)62271487
54LAUW1KETTLE-AT LAURIER04-22-2019DISCHARGE (KAF)1141159372
55LEOI1KOOTENAI-AT LEONIA04-22-2019DISCHARGE (KAF)3834521674
56LGDW1SNAKE-LOWER GRANITE DAM04-22-2019INFLOW (KAF)1825217761103
57LGSW1SNAKE-LITTLE GOOSE DAM04-22-2019INFLOW (KAF)1825217778103
58LLKW1SPOKANE-AT LONGLAKE04-22-2019INFLOW (KAF)1780245373
59LMNW1SNAKE-LOWER MONUMENTAL DAM04-22-2019INFLOW (KAF)1839017817103
60LUCI1BOISE-LUCKY PEAK DAM04-22-2019INFLOW (KAF)1502MM
61LWRI1LITTLE WOOD-LITTLE WOOD DAM04-22-2019INFLOW (KAF)9366143
62LYDM8KOOTENAI-LIBBY DAM04-22-2019INFLOW (KAF)4009576170
63MACI1BIG LOST-MACKAY RESERVOIR NEAR MACKAY04-22-2019INFLOW (KAF)181159114
64MAGI1BIG WOOD-MAGIC DAM04-22-2019INFLOW (KAF)237191124
65MCDW1COLUMBIA-MCNARY DAM04-22-2019INFLOW (KAF)474566153777
66MILI1SNAKE-AT MILNER04-22-2019DISCHARGE (KAF)1024252406
67MODO3DESCHUTES-AT MOODY NR BIGGS04-22-2019DISCHARGE (KAF)12581250101
68MONO3NF JOHN DAY-AT MONUMENT04-22-2019DISCHARGE (KAF)558405138
69MYKO3MCKAY CREEK-NEAR PILOT ROCK04-22-2019DISCHARGE (KAF)2810273
70NACW1NACHES-NEAR NACHES04-22-2019DISCHARGE (KAF)43745197
71NOXM8CLARK FORK-NOXON RAPIDS DAM04-22-2019INFLOW (KAF)7252832187
72ORFI1CLEARWATER-AT OROFINO04-22-2019DISCHARGE (KAF)39994011100
73OWYO3OWYHEE-OWYHEE DAM04-22-2019INFLOW (KAF)238193124
74PARI1BOISE-NEAR PARMA04-22-2019DISCHARGE (KAF)710384185
75PARW1YAKIMA-NEAR PARKER04-22-2019DISCHARGE (KAF)32937288
76PATW1METHOW-NEAR PATEROS04-22-2019DISCHARGE (KAF)51480264
77PDTO3UMATILLA-AT PENDLETON04-22-2019DISCHARGE (KAF)14584173
78PESW1WENATCHEE-AT PESHASTIN04-22-2019DISCHARGE (KAF)987133274
79PIHI1PORTNEUF-AT POCATELLO04-22-2019DISCHARGE (KAF)8360139
80PITW1KLICKITAT-NEAR PITT04-22-2019DISCHARGE (KAF)33840484
81PLDI1SF SNAKE-PALISADES DAM04-22-2019INFLOW (KAF)32882968111
82PRTI1PRIEST-NEAR PRIEST RIVER04-22-2019DISCHARGE (KAF)43768764
83PRWW1COLUMBIA-PRIEST RAPIDS DAM04-22-2019INFLOW (KAF)281824220267
84RCCM8ROCK CREEK-NEAR CLINTON04-22-2019DISCHARGE (KAF)321251128
85REXI1HENRYS FORK-AT REXBURG04-22-2019DISCHARGE (KAF)906679133
86RIDI1WILLOW CREEK-RIRIE DAM04-22-2019INFLOW (KAF)6734198
87RILW1TIETON-RIMROCK LAKE NEAR RIMROCK04-22-2019INFLOW (KAF)14918083
88RRHW1COLUMBIA-ROCKY REACH DAM04-22-2019INFLOW (KAF)271523448579
89SATI1ST MARIES-NEAR SANTA04-22-2019DISCHARGE (KAF)609563
90SERO3JOHN DAY-AT SERVICE CK04-22-2019DISCHARGE (KAF)849564150
91SHYI1SNAKE-NEAR SHELLEY04-22-2019DISCHARGE (KAF)27932214126
92SIFI1SNAKE-AB EAGLE ROCK NR IDAHO FALLS04-22-2019DISCHARGE (KAF)29532441121
93SJMI1ST JOE-AT ST MARIES04-22-2019STAGE (FT)MMM
94SNAI1SNAKE-AT BLACKFOOT04-22-2019DISCHARGE (KAF)22121708130
95SPDI1CLEARWATER-AT SPALDING04-22-2019DISCHARGE (KAF)5476595792
96SPOW1SPOKANE-AT SPOKANE04-22-2019DISCHARGE (KAF)1556MM
97SRGM8CLARK FORK-AT ST REGIS04-22-2019DISCHARGE (KAF)3304334899
98STRM8ST. REGIS-NEAR ST. REGIS04-22-2019DISCHARGE (KAF)18021683
99SWAI1SNAKE-BELOW SWAN FALLS04-22-2019DISCHARGE (KAF)29222156135
100TCHW1WALLA WALLA-NEAR TOUCHET04-22-2019DISCHARGE (KAF)12669183
101TDAO3COLUMBIA-THE DALLES DAM04-22-2019INFLOW (KAF)498015673188
102TEAI1TETON-NEAR ST. ANTHONY04-22-2019DISCHARGE (KAF)378340111
103TNAW1TEANAWAY-BELOW FORKS04-22-2019DISCHARGE (KAF)628474
104TONW1OKANOGAN-NEAR TONASKET04-22-2019DISCHARGE (KAF)777138756
105TRYO3GRANDE RONDE-TROY04-22-2019DISCHARGE (KAF)1162993117
106UMAO3UMATILLA-NEAR UMATILLA04-22-2019DISCHARGE (KAF)24739634
107UMTW1YAKIMA-AT UMTANUM04-22-2019DISCHARGE (KAF)77280096
108UNDW1WHITE SALMON-NEAR UNDERWOOD04-22-2019DISCHARGE (KAF)20227673
109VALO3MALHEUR-NEAR VALE04-22-2019DISCHARGE (KAF)5036137
110WANW1COLUMBIA-WANAPUM DAM04-22-2019INFLOW (KAF)281824134468
111WEII1SNAKE-AT WEISER04-22-2019DISCHARGE (KAF)57724196138
112WELW1COLUMBIA-WELLS DAM04-22-2019INFLOW (KAF)267733392179
113WGCM8MF FLATHEAD-NEAR WEST GLACIER04-22-2019DISCHARGE (KAF)1356150090
114WHBI1SALMON-AT WHITEBIRD04-22-2019DISCHARGE (KAF)5243542997
115WRMO3MALHEUR-WARM SPRINGS DAM04-22-2019INFLOW (KAF)8318455
116WSRI1WEISER-NEAR WEISER04-22-2019DISCHARGE (KAF)358278129